OKEAN-3

Last updated on Sat Jul 05 2025 00:02:14 GMT+0000 (Coordinated Universal Time)

1 21397U 91039A 25185.54507255 .00001717 00000+0 12574-3 0 9995 2 21397 82.5160 216.8690 0016524 95.4522 264.8589 15.02842238827748
UTC large
Height (km)
Speed (km/s)
/
Latitude / Longitude
Inclination (degrees)
Orbital Period (minutes)
Azimuth
Elevation
Range (km)
Doppler Factor

Next 0 passes for location: London (51.5072 / 0.1276)

Sorry there are no passes over London.